Location: Moscow
(38.3171°N, 79.0889°W)
Time: 01:26:39
(UTC+00:00)

Tsikada Rocket - Pass Details

Date: 07 November 2025
Orbit: 957 x 1008 km, 82.9° (Epoch: 08 December)

Event Time Altitude Azimuth Distance (km) Brightness Sun altitude
Rises 23:42:37 0° 352° (N) 3,746 7.1 -18.4°
Reaches altitude 10° 23:45:10 10° 352° (N) 2,792 6.4 -18.9°
Maximum altitude 23:51:36 85° 265° (W) 1,014 4.1 -20.2°
Drops below altitude 10° 23:57:58 10° 178° (S) 2,760 6.4 -21.4°
Sets 00:00:28 0° 177° (S) 3,700 7.1 -21.9°
